Year,Month,Day,Hour,Minute,Value (Times are PST for temperature in C)
2019,04,01,00,00,6.10
2019,04,01,00,01,6.10
2019,04,01,00,02,6.00
2019,04,01,00,03,6.00
2019,04,01,00,04,5.90
2019,04,01,00,05,5.90
2019,04,01,00,06,5.90
2019,04,01,00,07,5.90
2019,04,01,00,08,5.90
2019,04,01,00,09,5.90
2019,04,01,00,10,5.90
2019,04,01,00,11,5.90
2019,04,01,00,12,5.90
2019,04,01,00,13,5.90
2019,04,01,00,14,5.90
2019,04,01,00,15,5.90
2019,04,01,00,16,5.80
2019,04,01,00,17,5.90
2019,04,01,00,18,5.90
2019,04,01,00,19,5.90
2019,04,01,00,20,5.90
2019,04,01,00,21,5.90
2019,04,01,00,22,5.90
2019,04,01,00,23,5.90
2019,04,01,00,24,5.90
2019,04,01,00,25,5.80
2019,04,01,00,26,5.80
2019,04,01,00,27,5.80
2019,04,01,00,28,5.80
2019,04,01,00,29,5.80
2019,04,01,00,30,5.80
2019,04,01,00,31,5.70
2019,04,01,00,32,5.70
2019,04,01,00,33,5.70
2019,04,01,00,34,5.70
2019,04,01,00,35,5.60
2019,04,01,00,36,5.60
2019,04,01,00,37,5.60
2019,04,01,00,38,5.60
2019,04,01,00,39,5.60
2019,04,01,00,40,5.60
2019,04,01,00,41,5.50
2019,04,01,00,42,5.50
2019,04,01,00,43,5.50
2019,04,01,00,44,5.40
2019,04,01,00,45,5.40
2019,04,01,00,46,5.40
2019,04,01,00,47,5.40
2019,04,01,00,48,5.40
2019,04,01,00,49,5.40
2019,04,01,00,50,5.40
2019,04,01,00,51,5.40
2019,04,01,00,52,5.40
2019,04,01,00,53,5.40
2019,04,01,00,54,5.40
2019,04,01,00,55,5.30
2019,04,01,00,56,5.30
2019,04,01,00,57,5.30
2019,04,01,00,58,5.30
2019,04,01,00,59,5.30
2019,04,01,01,00,5.30
2019,04,01,01,01,5.30
2019,04,01,01,02,5.30
2019,04,01,01,03,5.20
2019,04,01,01,04,5.20
2019,04,01,01,05,5.20
2019,04,01,01,06,5.20
2019,04,01,01,07,5.20
2019,04,01,01,08,5.20
2019,04,01,01,09,5.20
2019,04,01,01,10,5.20
2019,04,01,01,11,5.20
2019,04,01,01,12,5.30
2019,04,01,01,13,5.30
2019,04,01,01,14,5.30
2019,04,01,01,15,5.30
2019,04,01,01,16,5.30
2019,04,01,01,17,5.20
2019,04,01,01,18,5.20
2019,04,01,01,19,5.20
2019,04,01,01,20,5.20
2019,04,01,01,21,5.20
2019,04,01,01,22,5.20
2019,04,01,01,23,5.20
2019,04,01,01,24,5.20
2019,04,01,01,25,5.20
2019,04,01,01,26,5.20
2019,04,01,01,27,5.20
2019,04,01,01,28,5.20
2019,04,01,01,29,5.20
2019,04,01,01,30,5.20
2019,04,01,01,31,5.20
2019,04,01,01,32,5.20
2019,04,01,01,33,5.20
2019,04,01,01,34,5.20
2019,04,01,01,35,5.10
2019,04,01,01,36,5.10
2019,04,01,01,37,5.10
2019,04,01,01,38,5.10
2019,04,01,01,39,5.10
2019,04,01,01,40,5.10
2019,04,01,01,41,5.10
2019,04,01,01,42,5.00
2019,04,01,01,43,5.00
2019,04,01,01,44,5.00
2019,04,01,01,45,5.00
2019,04,01,01,46,4.90
2019,04,01,01,47,4.90
2019,04,01,01,48,4.90
2019,04,01,01,49,4.80
2019,04,01,01,50,4.80
2019,04,01,01,51,4.80
2019,04,01,01,52,4.80
2019,04,01,01,53,4.80
2019,04,01,01,54,4.80
2019,04,01,01,55,4.80
2019,04,01,01,56,4.80
2019,04,01,01,57,4.80
2019,04,01,01,58,4.80
2019,04,01,01,59,4.80
2019,04,01,02,00,4.80
2019,04,01,02,01,4.80
2019,04,01,02,02,4.80
2019,04,01,02,03,4.80
2019,04,01,02,04,4.80
2019,04,01,02,05,4.80
2019,04,01,02,06,4.70
2019,04,01,02,07,4.70
2019,04,01,02,08,4.70
2019,04,01,02,09,4.70
2019,04,01,02,10,4.70
2019,04,01,02,11,4.70
2019,04,01,02,12,4.70
2019,04,01,02,13,4.70
2019,04,01,02,14,4.70
2019,04,01,02,15,4.60
2019,04,01,02,16,4.60
2019,04,01,02,17,4.60
2019,04,01,02,18,4.60
2019,04,01,02,19,4.50
2019,04,01,02,20,4.50
2019,04,01,02,21,4.50
2019,04,01,02,22,4.40
2019,04,01,02,23,4.40
2019,04,01,02,24,4.40
2019,04,01,02,25,4.40
2019,04,01,02,26,4.30
2019,04,01,02,27,4.30
2019,04,01,02,28,4.30
2019,04,01,02,29,4.30
2019,04,01,02,30,4.30
2019,04,01,02,31,4.30
2019,04,01,02,32,4.30
2019,04,01,02,33,4.30
2019,04,01,02,34,4.20
2019,04,01,02,35,4.20
2019,04,01,02,36,4.20
2019,04,01,02,37,4.20
2019,04,01,02,38,4.20
2019,04,01,02,39,4.20
2019,04,01,02,40,4.20
2019,04,01,02,41,4.20
2019,04,01,02,42,4.20
2019,04,01,02,43,4.20
2019,04,01,02,44,4.20
2019,04,01,02,45,4.20
2019,04,01,02,46,4.20
2019,04,01,02,47,4.20
2019,04,01,02,48,4.20
2019,04,01,02,49,4.30
2019,04,01,02,50,4.20
2019,04,01,02,51,4.20
2019,04,01,02,52,4.20
2019,04,01,02,53,4.20
2019,04,01,02,54,4.20
2019,04,01,02,55,4.30
2019,04,01,02,56,4.30
2019,04,01,02,57,4.30
2019,04,01,02,58,4.40
2019,04,01,02,59,4.50
2019,04,01,03,00,4.50
2019,04,01,03,01,4.60
2019,04,01,03,02,4.70
2019,04,01,03,03,4.80
2019,04,01,03,04,4.90
2019,04,01,03,05,5.00
2019,04,01,03,06,5.20
2019,04,01,03,07,5.30
2019,04,01,03,08,5.40
2019,04,01,03,09,5.50
2019,04,01,03,10,5.50
2019,04,01,03,11,5.60
2019,04,01,03,12,5.60
2019,04,01,03,13,5.60
2019,04,01,03,14,5.60
2019,04,01,03,15,5.60
2019,04,01,03,16,5.70
2019,04,01,03,17,5.70
2019,04,01,03,18,5.70
2019,04,01,03,19,5.70
2019,04,01,03,20,5.70
2019,04,01,03,21,5.70
2019,04,01,03,22,5.70
2019,04,01,03,23,5.70
2019,04,01,03,24,5.70
2019,04,01,03,25,5.70
2019,04,01,03,26,5.70
2019,04,01,03,27,5.70
2019,04,01,03,28,5.70
2019,04,01,03,29,5.60
2019,04,01,03,30,5.60
2019,04,01,03,31,5.60
2019,04,01,03,32,5.60
2019,04,01,03,33,5.60
2019,04,01,03,34,5.60
2019,04,01,03,35,5.50
2019,04,01,03,36,5.50
2019,04,01,03,37,5.50
2019,04,01,03,38,5.40
2019,04,01,03,39,5.40
2019,04,01,03,40,5.50
2019,04,01,03,41,5.50
2019,04,01,03,42,5.50
2019,04,01,03,43,5.50
2019,04,01,03,44,5.50
2019,04,01,03,45,5.50
2019,04,01,03,46,5.50
2019,04,01,03,47,5.40
2019,04,01,03,48,5.40
2019,04,01,03,49,5.40
2019,04,01,03,50,5.40
2019,04,01,03,51,5.40
2019,04,01,03,52,5.30
2019,04,01,03,53,5.30
2019,04,01,03,54,5.30
2019,04,01,03,55,5.30
2019,04,01,03,56,5.30
2019,04,01,03,57,5.30
2019,04,01,03,58,5.30
2019,04,01,03,59,5.30
2019,04,01,04,00,5.30
2019,04,01,04,01,5.30
2019,04,01,04,02,5.30
2019,04,01,04,03,5.30
2019,04,01,04,04,5.20
2019,04,01,04,05,5.20
2019,04,01,04,06,5.20
2019,04,01,04,07,5.20
2019,04,01,04,08,5.20
2019,04,01,04,09,5.20
2019,04,01,04,10,5.20
2019,04,01,04,11,5.20
2019,04,01,04,12,5.20
2019,04,01,04,13,5.20
2019,04,01,04,14,5.20
2019,04,01,04,15,5.20
2019,04,01,04,16,5.30
2019,04,01,04,17,5.50
2019,04,01,04,18,5.60
2019,04,01,04,19,5.80
2019,04,01,04,20,6.00
2019,04,01,04,21,6.10
2019,04,01,04,22,6.30
2019,04,01,04,23,6.40
2019,04,01,04,24,6.50
2019,04,01,04,25,6.50
2019,04,01,04,26,6.50
2019,04,01,04,27,6.50
2019,04,01,04,28,6.40
2019,04,01,04,29,6.40
2019,04,01,04,30,6.40
2019,04,01,04,31,6.40
2019,04,01,04,32,6.40
2019,04,01,04,33,6.40
2019,04,01,04,34,6.40
2019,04,01,04,35,6.50
2019,04,01,04,36,6.50
2019,04,01,04,37,6.50
2019,04,01,04,38,6.60
2019,04,01,04,39,6.60
2019,04,01,04,40,6.60
2019,04,01,04,41,6.70
2019,04,01,04,42,6.70
2019,04,01,04,43,6.70
2019,04,01,04,44,6.70
2019,04,01,04,45,6.80
2019,04,01,04,46,6.80
2019,04,01,04,47,6.80
2019,04,01,04,48,6.90
2019,04,01,04,49,6.90
2019,04,01,04,50,6.90
2019,04,01,04,51,6.90
2019,04,01,04,52,6.90
2019,04,01,04,53,6.90
2019,04,01,04,54,7.00
2019,04,01,04,55,7.00
2019,04,01,04,56,7.10
2019,04,01,04,57,7.20
2019,04,01,04,58,7.30
2019,04,01,04,59,7.40
2019,04,01,05,00,7.40
2019,04,01,05,01,7.40
2019,04,01,05,02,7.40
2019,04,01,05,03,7.30
2019,04,01,05,04,7.30
2019,04,01,05,05,7.20
2019,04,01,05,06,7.20
2019,04,01,05,07,7.10
2019,04,01,05,08,6.90
2019,04,01,05,09,6.80
2019,04,01,05,10,6.70
2019,04,01,05,11,6.60
2019,04,01,05,12,6.50
2019,04,01,05,13,6.40
2019,04,01,05,14,6.30
2019,04,01,05,15,6.20
2019,04,01,05,16,6.10
2019,04,01,05,17,6.00
2019,04,01,05,18,5.90
2019,04,01,05,19,5.90
2019,04,01,05,20,5.80
2019,04,01,05,21,5.70
2019,04,01,05,22,5.60
2019,04,01,05,23,5.50
2019,04,01,05,24,5.50
2019,04,01,05,25,5.40
2019,04,01,05,26,5.40
2019,04,01,05,27,5.30
2019,04,01,05,28,5.30
2019,04,01,05,29,5.20
2019,04,01,05,30,5.20
2019,04,01,05,31,5.10
2019,04,01,05,32,5.10
2019,04,01,05,33,5.00
2019,04,01,05,34,5.00
2019,04,01,05,35,4.90
2019,04,01,05,36,4.90
2019,04,01,05,37,4.80
2019,04,01,05,38,4.80
2019,04,01,05,39,4.80
2019,04,01,05,40,4.70
2019,04,01,05,41,4.70
2019,04,01,05,42,4.80
2019,04,01,05,43,4.90
2019,04,01,05,44,5.00
2019,04,01,05,45,5.10
2019,04,01,05,46,5.20
2019,04,01,05,47,5.30
2019,04,01,05,48,5.50
2019,04,01,05,49,5.60
2019,04,01,05,50,5.70
2019,04,01,05,51,5.90
2019,04,01,05,52,6.10
2019,04,01,05,53,6.30
2019,04,01,05,54,6.50
2019,04,01,05,55,6.60
2019,04,01,05,56,6.80
2019,04,01,05,57,7.00
2019,04,01,05,58,7.10
2019,04,01,05,59,7.20
2019,04,01,06,00,7.20
2019,04,01,06,01,7.30
2019,04,01,06,02,7.30
2019,04,01,06,03,7.40
2019,04,01,06,04,7.40
2019,04,01,06,05,7.40
2019,04,01,06,06,7.50
2019,04,01,06,07,7.40
2019,04,01,06,08,7.40
2019,04,01,06,09,7.40
2019,04,01,06,10,7.40
2019,04,01,06,11,7.30
2019,04,01,06,12,7.30
2019,04,01,06,13,7.30
2019,04,01,06,14,7.20
2019,04,01,06,15,7.20
2019,04,01,06,16,7.20
2019,04,01,06,17,7.10
2019,04,01,06,18,7.00
2019,04,01,06,19,6.90
2019,04,01,06,20,6.80
2019,04,01,06,21,6.70
2019,04,01,06,22,6.70
2019,04,01,06,23,6.60
2019,04,01,06,24,6.50
2019,04,01,06,25,6.40
2019,04,01,06,26,6.40
2019,04,01,06,27,6.30
2019,04,01,06,28,6.30
2019,04,01,06,29,6.20
2019,04,01,06,30,6.20
2019,04,01,06,31,6.20
2019,04,01,06,32,6.10
2019,04,01,06,33,6.10
2019,04,01,06,34,6.00
2019,04,01,06,35,6.00
2019,04,01,06,36,6.00
2019,04,01,06,37,5.90
2019,04,01,06,38,5.90
2019,04,01,06,39,5.90
2019,04,01,06,40,5.90
2019,04,01,06,41,5.90
2019,04,01,06,42,5.80
2019,04,01,06,43,5.80
2019,04,01,06,44,5.70
2019,04,01,06,45,5.70
2019,04,01,06,46,5.70
2019,04,01,06,47,5.70
2019,04,01,06,48,5.70
2019,04,01,06,49,5.70
2019,04,01,06,50,5.60
2019,04,01,06,51,5.70
2019,04,01,06,52,5.70
2019,04,01,06,53,5.60
2019,04,01,06,54,5.60
2019,04,01,06,55,5.50
2019,04,01,06,56,5.50
2019,04,01,06,57,5.40
2019,04,01,06,58,5.40
2019,04,01,06,59,5.30
2019,04,01,07,00,5.30
2019,04,01,07,01,5.30
2019,04,01,07,02,5.30
2019,04,01,07,03,5.30
2019,04,01,07,04,5.30
2019,04,01,07,05,5.30
2019,04,01,07,06,5.30
2019,04,01,07,07,5.30
2019,04,01,07,08,5.40
2019,04,01,07,09,5.50
2019,04,01,07,10,5.50
2019,04,01,07,11,5.60
2019,04,01,07,12,5.60
2019,04,01,07,13,5.60
2019,04,01,07,14,5.60
2019,04,01,07,15,5.60
2019,04,01,07,16,5.60
2019,04,01,07,17,5.60
2019,04,01,07,18,5.50
2019,04,01,07,19,5.50
2019,04,01,07,20,5.40
2019,04,01,07,21,5.40
2019,04,01,07,22,5.40
2019,04,01,07,23,5.30
2019,04,01,07,24,5.40
2019,04,01,07,25,5.40
2019,04,01,07,26,5.40
2019,04,01,07,27,5.50
2019,04,01,07,28,5.60
2019,04,01,07,29,5.70
2019,04,01,07,30,5.70
2019,04,01,07,31,5.70
2019,04,01,07,32,5.80
2019,04,01,07,33,5.80
2019,04,01,07,34,5.90
2019,04,01,07,35,5.90
2019,04,01,07,36,6.00
2019,04,01,07,37,6.00
2019,04,01,07,38,6.10
2019,04,01,07,39,6.10
2019,04,01,07,40,6.20
2019,04,01,07,41,6.20
2019,04,01,07,42,6.30
2019,04,01,07,43,6.30
2019,04,01,07,44,6.30
2019,04,01,07,45,6.30
2019,04,01,07,46,6.30
2019,04,01,07,47,6.30
2019,04,01,07,48,6.40
2019,04,01,07,49,6.40
2019,04,01,07,50,6.50
2019,04,01,07,51,6.60
2019,04,01,07,52,6.60
2019,04,01,07,53,6.70
2019,04,01,07,54,6.80
2019,04,01,07,55,6.90
2019,04,01,07,56,7.00
2019,04,01,07,57,7.10
2019,04,01,07,58,7.20
2019,04,01,07,59,7.30
2019,04,01,08,00,7.40
2019,04,01,08,01,7.50
2019,04,01,08,02,7.70
2019,04,01,08,03,7.80
2019,04,01,08,04,7.90
2019,04,01,08,05,8.00
2019,04,01,08,06,8.10
2019,04,01,08,07,8.20
2019,04,01,08,08,8.30
2019,04,01,08,09,8.30
2019,04,01,08,10,8.40
2019,04,01,08,11,8.50
2019,04,01,08,12,8.60
2019,04,01,08,13,8.60
2019,04,01,08,14,8.70
2019,04,01,08,15,8.70
2019,04,01,08,16,8.80
2019,04,01,08,17,8.80
2019,04,01,08,18,8.80
2019,04,01,08,19,8.90
2019,04,01,08,20,8.90
2019,04,01,08,21,8.90
2019,04,01,08,22,8.90
2019,04,01,08,23,8.90
2019,04,01,08,24,9.00
2019,04,01,08,25,9.00
2019,04,01,08,26,9.00
2019,04,01,08,27,9.00
2019,04,01,08,28,9.10
2019,04,01,08,29,9.10
2019,04,01,08,30,9.20
2019,04,01,08,31,9.20
2019,04,01,08,32,9.30
2019,04,01,08,33,9.30
2019,04,01,08,34,9.40
2019,04,01,08,35,9.40
2019,04,01,08,36,9.50
2019,04,01,08,37,9.60
2019,04,01,08,38,9.60
2019,04,01,08,39,9.70
2019,04,01,08,40,9.80
2019,04,01,08,41,9.80
2019,04,01,08,42,9.90
2019,04,01,08,43,9.90
2019,04,01,08,44,10.00
2019,04,01,08,45,10.10
2019,04,01,08,46,10.10
2019,04,01,08,47,10.10
2019,04,01,08,48,10.20
2019,04,01,08,49,10.20
2019,04,01,08,50,10.20
2019,04,01,08,51,10.30
2019,04,01,08,52,10.30
2019,04,01,08,53,10.30
2019,04,01,08,54,10.40
2019,04,01,08,55,10.40
2019,04,01,08,56,10.40
2019,04,01,08,57,10.40
2019,04,01,08,58,10.40
2019,04,01,08,59,10.40
2019,04,01,09,00,10.40
2019,04,01,09,01,10.50
2019,04,01,09,02,10.50
2019,04,01,09,03,10.50
2019,04,01,09,04,10.60
2019,04,01,09,05,10.60
2019,04,01,09,06,10.60
2019,04,01,09,07,10.60
2019,04,01,09,08,10.60
2019,04,01,09,09,10.70
2019,04,01,09,10,10.70
2019,04,01,09,11,10.70
2019,04,01,09,12,10.80
2019,04,01,09,13,10.80
2019,04,01,09,14,10.90
2019,04,01,09,15,10.90
2019,04,01,09,16,11.00
2019,04,01,09,17,11.00
2019,04,01,09,18,11.10
2019,04,01,09,19,11.10
2019,04,01,09,20,11.20
2019,04,01,09,21,11.20
2019,04,01,09,22,11.20
2019,04,01,09,23,11.20
2019,04,01,09,24,11.20
2019,04,01,09,25,11.30
2019,04,01,09,26,11.30
2019,04,01,09,27,11.30
2019,04,01,09,28,11.40
2019,04,01,09,29,11.40
2019,04,01,09,30,11.40
2019,04,01,09,31,11.50
2019,04,01,09,32,11.50
2019,04,01,09,33,11.50
2019,04,01,09,34,11.60
2019,04,01,09,35,11.60
2019,04,01,09,36,11.60
2019,04,01,09,37,11.60
2019,04,01,09,38,11.60
2019,04,01,09,39,11.60
2019,04,01,09,40,11.70
2019,04,01,09,41,11.70
2019,04,01,09,42,11.70
2019,04,01,09,43,11.70
2019,04,01,09,44,11.80
2019,04,01,09,45,11.80
2019,04,01,09,46,11.80
2019,04,01,09,47,11.80
2019,04,01,09,48,11.80
2019,04,01,09,49,11.80
2019,04,01,09,50,11.80
2019,04,01,09,51,11.80
2019,04,01,09,52,11.80
2019,04,01,09,53,11.80
2019,04,01,09,54,11.80
2019,04,01,09,55,11.80
2019,04,01,09,56,11.80
2019,04,01,09,57,11.80
2019,04,01,09,58,11.90
2019,04,01,09,59,11.90
2019,04,01,10,00,11.90
2019,04,01,10,01,12.00
2019,04,01,10,02,12.10
2019,04,01,10,03,12.10
2019,04,01,10,04,12.10
2019,04,01,10,05,12.10
2019,04,01,10,06,12.10
2019,04,01,10,07,12.10
2019,04,01,10,08,12.10
2019,04,01,10,09,12.10
2019,04,01,10,10,12.10
2019,04,01,10,11,12.10
2019,04,01,10,12,12.10
2019,04,01,10,13,12.20
2019,04,01,10,14,12.20
2019,04,01,10,15,12.20
2019,04,01,10,16,12.20
2019,04,01,10,17,12.30
2019,04,01,10,18,12.30
2019,04,01,10,19,12.30
2019,04,01,10,20,12.30
2019,04,01,10,21,12.40
2019,04,01,10,22,12.40
2019,04,01,10,23,12.40
2019,04,01,10,24,12.50
2019,04,01,10,25,12.60
2019,04,01,10,26,12.60
2019,04,01,10,27,12.60
2019,04,01,10,28,12.60
2019,04,01,10,29,12.60
2019,04,01,10,30,12.60
2019,04,01,10,31,12.60
2019,04,01,10,32,12.60
2019,04,01,10,33,12.60
2019,04,01,10,34,12.70
2019,04,01,10,35,12.70
2019,04,01,10,36,12.80
2019,04,01,10,37,12.90
2019,04,01,10,38,12.90
2019,04,01,10,39,13.00
2019,04,01,10,40,13.10
2019,04,01,10,41,13.10
2019,04,01,10,42,13.20
2019,04,01,10,43,13.30
2019,04,01,10,44,13.40
2019,04,01,10,45,13.40
2019,04,01,10,46,13.40
2019,04,01,10,47,13.40
2019,04,01,10,48,13.40
2019,04,01,10,49,13.40
2019,04,01,10,50,13.30
2019,04,01,10,51,13.30
2019,04,01,10,52,13.30
2019,04,01,10,53,13.30
2019,04,01,10,54,13.40
2019,04,01,10,55,13.40
2019,04,01,10,56,13.50
2019,04,01,10,57,13.50
2019,04,01,10,58,13.60
2019,04,01,10,59,13.70
2019,04,01,11,00,13.70
2019,04,01,11,01,13.70
2019,04,01,11,02,13.70
2019,04,01,11,03,13.70
2019,04,01,11,04,13.70
2019,04,01,11,05,13.70
2019,04,01,11,06,13.70
2019,04,01,11,07,13.80
2019,04,01,11,08,13.80
2019,04,01,11,09,13.80
2019,04,01,11,10,13.80
2019,04,01,11,11,13.80
2019,04,01,11,12,13.80
2019,04,01,11,13,13.80
2019,04,01,11,14,13.90
2019,04,01,11,15,13.90
2019,04,01,11,16,14.00
2019,04,01,11,17,14.00
2019,04,01,11,18,14.10
2019,04,01,11,19,14.20
2019,04,01,11,20,14.20
2019,04,01,11,21,14.20
2019,04,01,11,22,14.10
2019,04,01,11,23,14.10
2019,04,01,11,24,14.10
2019,04,01,11,25,14.10
2019,04,01,11,26,14.10
2019,04,01,11,27,14.10
2019,04,01,11,28,14.10
2019,04,01,11,29,14.10
2019,04,01,11,30,14.10
2019,04,01,11,31,14.20
2019,04,01,11,32,14.20
2019,04,01,11,33,14.20
2019,04,01,11,34,14.30
2019,04,01,11,35,14.30
2019,04,01,11,36,14.30
2019,04,01,11,37,14.30
2019,04,01,11,38,14.30
2019,04,01,11,39,14.30
2019,04,01,11,40,14.40
2019,04,01,11,41,14.30
2019,04,01,11,42,14.30
2019,04,01,11,43,14.30
2019,04,01,11,44,14.30
2019,04,01,11,45,14.30
2019,04,01,11,46,14.20
2019,04,01,11,47,14.10
2019,04,01,11,48,14.00
2019,04,01,11,49,13.90
2019,04,01,11,50,13.90
2019,04,01,11,51,13.80
2019,04,01,11,52,13.80
2019,04,01,11,53,13.80
2019,04,01,11,54,13.80
2019,04,01,11,55,13.70
2019,04,01,11,56,13.70
2019,04,01,11,57,13.70
2019,04,01,11,58,13.70
2019,04,01,11,59,13.70
2019,04,01,12,00,13.80
2019,04,01,12,01,13.90
2019,04,01,12,02,14.00
2019,04,01,12,03,14.10
2019,04,01,12,04,14.20
2019,04,01,12,05,14.30
2019,04,01,12,06,14.40
2019,04,01,12,07,14.40
2019,04,01,12,08,14.50
2019,04,01,12,09,14.60
2019,04,01,12,10,14.60
2019,04,01,12,11,14.60
2019,04,01,12,12,14.50
2019,04,01,12,13,14.50
2019,04,01,12,14,14.40
2019,04,01,12,15,14.40
2019,04,01,12,16,14.40
2019,04,01,12,17,14.50
2019,04,01,12,18,14.50
2019,04,01,12,19,14.50
2019,04,01,12,20,14.50
2019,04,01,12,21,14.50
2019,04,01,12,22,14.40
2019,04,01,12,23,14.40
2019,04,01,12,24,14.30
2019,04,01,12,25,14.30
2019,04,01,12,26,14.20
2019,04,01,12,27,14.20
2019,04,01,12,28,14.20
2019,04,01,12,29,14.20
2019,04,01,12,30,14.10
2019,04,01,12,31,14.10
2019,04,01,12,32,14.00
2019,04,01,12,33,14.00
2019,04,01,12,34,13.90
2019,04,01,12,35,13.90
2019,04,01,12,36,13.90
2019,04,01,12,37,13.90
2019,04,01,12,38,13.90
2019,04,01,12,39,13.90
2019,04,01,12,40,14.00
2019,04,01,12,41,14.00
2019,04,01,12,42,14.00
2019,04,01,12,43,14.00
2019,04,01,12,44,14.00
2019,04,01,12,45,13.90
2019,04,01,12,46,13.90
2019,04,01,12,47,13.80
2019,04,01,12,48,13.70
2019,04,01,12,49,13.60
2019,04,01,12,50,13.60
2019,04,01,12,51,13.50
2019,04,01,12,52,13.50
2019,04,01,12,53,13.40
2019,04,01,12,54,13.40
2019,04,01,12,55,13.40
2019,04,01,12,56,13.40
2019,04,01,12,57,13.40
2019,04,01,12,58,13.50
2019,04,01,12,59,13.50
2019,04,01,13,00,13.60
2019,04,01,13,01,13.60
2019,04,01,13,02,13.70
2019,04,01,13,03,13.80
2019,04,01,13,04,13.80
2019,04,01,13,05,13.80
2019,04,01,13,06,13.90
2019,04,01,13,07,13.90
2019,04,01,13,08,14.00
2019,04,01,13,09,14.10
2019,04,01,13,10,14.10
2019,04,01,13,11,14.20
2019,04,01,13,12,14.20
2019,04,01,13,13,14.30
2019,04,01,13,14,14.40
2019,04,01,13,15,14.40
2019,04,01,13,16,14.40
2019,04,01,13,17,14.50
2019,04,01,13,18,14.60
2019,04,01,13,19,14.60
2019,04,01,13,20,14.60
2019,04,01,13,21,14.70
2019,04,01,13,22,14.80
2019,04,01,13,23,14.90
2019,04,01,13,24,15.00
2019,04,01,13,25,15.00
2019,04,01,13,26,15.00
2019,04,01,13,27,15.00
2019,04,01,13,28,15.10
2019,04,01,13,29,15.20
2019,04,01,13,30,15.10
2019,04,01,13,31,15.10
2019,04,01,13,32,15.10
2019,04,01,13,33,15.10
2019,04,01,13,34,15.20
2019,04,01,13,35,15.20
2019,04,01,13,36,15.20
2019,04,01,13,37,15.20
2019,04,01,13,38,15.20
2019,04,01,13,39,15.20
2019,04,01,13,40,15.20
2019,04,01,13,41,15.20
2019,04,01,13,42,15.10
2019,04,01,13,43,15.10
2019,04,01,13,44,15.10
2019,04,01,13,45,15.10
2019,04,01,13,46,15.10
2019,04,01,13,47,15.00
2019,04,01,13,48,14.70
2019,04,01,13,49,14.70
2019,04,01,13,50,14.60
2019,04,01,13,51,14.50
2019,04,01,13,52,14.40
2019,04,01,13,53,14.40
2019,04,01,13,54,14.30
2019,04,01,13,55,14.30
2019,04,01,13,56,14.30
2019,04,01,13,57,14.30
2019,04,01,13,58,14.30
2019,04,01,13,59,14.30
2019,04,01,14,00,14.30
2019,04,01,14,01,14.30
2019,04,01,14,02,14.30
2019,04,01,14,03,14.30
2019,04,01,14,04,14.40
2019,04,01,14,05,14.40
2019,04,01,14,06,14.50
2019,04,01,14,07,14.50
2019,04,01,14,08,14.60
2019,04,01,14,09,14.60
2019,04,01,14,10,14.70
2019,04,01,14,11,14.70
2019,04,01,14,12,14.80
2019,04,01,14,13,14.90
2019,04,01,14,14,15.00
2019,04,01,14,15,15.00
2019,04,01,14,16,15.00
2019,04,01,14,17,15.10
2019,04,01,14,18,15.20
2019,04,01,14,19,15.30
2019,04,01,14,20,15.30
2019,04,01,14,21,15.40
2019,04,01,14,22,15.40
2019,04,01,14,23,15.40
2019,04,01,14,24,15.40
2019,04,01,14,25,15.40
2019,04,01,14,26,15.40
2019,04,01,14,27,15.40
2019,04,01,14,28,15.40
2019,04,01,14,29,15.40
2019,04,01,14,30,15.40
2019,04,01,14,31,15.40
2019,04,01,14,32,15.30
2019,04,01,14,33,15.30
2019,04,01,14,34,15.30
2019,04,01,14,35,15.30
2019,04,01,14,36,15.20
2019,04,01,14,37,15.20
2019,04,01,14,38,15.20
2019,04,01,14,39,15.20
2019,04,01,14,40,15.20
2019,04,01,14,41,15.20
2019,04,01,14,42,15.30
2019,04,01,14,43,15.40
2019,04,01,14,44,15.40
2019,04,01,14,45,15.50
2019,04,01,14,46,15.50
2019,04,01,14,47,15.40
2019,04,01,14,48,15.40
2019,04,01,14,49,15.40
2019,04,01,14,50,15.40
2019,04,01,14,51,15.30
2019,04,01,14,52,15.30
2019,04,01,14,53,15.30
2019,04,01,14,54,15.30
2019,04,01,14,55,15.30
2019,04,01,14,56,15.30
2019,04,01,14,57,15.40
2019,04,01,14,58,15.50
2019,04,01,14,59,15.50
2019,04,01,15,00,15.60
2019,04,01,15,01,15.60
2019,04,01,15,02,15.60
2019,04,01,15,03,15.60
2019,04,01,15,04,15.70
2019,04,01,15,05,15.70
2019,04,01,15,06,15.80
2019,04,01,15,07,15.80
2019,04,01,15,08,15.80
2019,04,01,15,09,15.80
2019,04,01,15,10,15.80
2019,04,01,15,11,15.80
2019,04,01,15,12,15.80
2019,04,01,15,13,15.70
2019,04,01,15,14,15.70
2019,04,01,15,15,15.80
2019,04,01,15,16,15.80
2019,04,01,15,17,15.80
2019,04,01,15,18,15.80
2019,04,01,15,19,15.80
2019,04,01,15,20,15.90
2019,04,01,15,21,15.90
2019,04,01,15,22,15.80
2019,04,01,15,23,15.80
2019,04,01,15,24,15.80
2019,04,01,15,25,15.80
2019,04,01,15,26,15.80
2019,04,01,15,27,15.80
2019,04,01,15,28,15.80
2019,04,01,15,29,15.90
2019,04,01,15,30,15.90
2019,04,01,15,31,16.00
2019,04,01,15,32,16.00
2019,04,01,15,33,16.10
2019,04,01,15,34,16.20
2019,04,01,15,35,16.20
2019,04,01,15,36,16.20
2019,04,01,15,37,16.20
2019,04,01,15,38,16.20
2019,04,01,15,39,16.20
2019,04,01,15,40,16.20
2019,04,01,15,41,16.20
2019,04,01,15,42,16.20
2019,04,01,15,43,16.30
2019,04,01,15,44,16.30
2019,04,01,15,45,16.30
2019,04,01,15,46,16.40
2019,04,01,15,47,16.40
2019,04,01,15,48,16.50
2019,04,01,15,49,16.50
2019,04,01,15,50,16.60
2019,04,01,15,51,16.60
2019,04,01,15,52,16.70
2019,04,01,15,53,16.70
2019,04,01,15,54,16.70
2019,04,01,15,55,16.80
2019,04,01,15,56,16.80
2019,04,01,15,57,16.90
2019,04,01,15,58,16.90
2019,04,01,15,59,16.90
2019,04,01,16,00,16.90
2019,04,01,16,01,16.90
2019,04,01,16,02,16.90
2019,04,01,16,03,16.90
2019,04,01,16,04,16.90
2019,04,01,16,05,16.90
2019,04,01,16,06,16.80
2019,04,01,16,07,16.80
2019,04,01,16,08,16.80
2019,04,01,16,09,16.80
2019,04,01,16,10,16.80
2019,04,01,16,11,16.80
2019,04,01,16,12,16.80
2019,04,01,16,13,16.80
2019,04,01,16,14,16.80
2019,04,01,16,15,16.80
2019,04,01,16,16,16.80
2019,04,01,16,17,16.90
2019,04,01,16,18,16.90
2019,04,01,16,19,16.90
2019,04,01,16,20,16.90
2019,04,01,16,21,16.90
2019,04,01,16,22,16.90
2019,04,01,16,23,16.90
2019,04,01,16,24,16.90
2019,04,01,16,25,17.00
2019,04,01,16,26,17.10
2019,04,01,16,27,17.10
2019,04,01,16,28,17.10
2019,04,01,16,29,17.20
2019,04,01,16,30,17.20
2019,04,01,16,31,17.20
2019,04,01,16,32,17.20
2019,04,01,16,33,17.20
2019,04,01,16,34,17.10
2019,04,01,16,35,17.20
2019,04,01,16,36,17.20
2019,04,01,16,37,17.20
2019,04,01,16,38,17.20
2019,04,01,16,39,17.20
2019,04,01,16,40,17.20
2019,04,01,16,41,17.20
2019,04,01,16,42,17.10
2019,04,01,16,43,17.10
2019,04,01,16,44,17.20
2019,04,01,16,45,17.20
2019,04,01,16,46,17.20
2019,04,01,16,47,17.20
2019,04,01,16,48,17.20
2019,04,01,16,49,17.20
2019,04,01,16,50,17.20
2019,04,01,16,51,17.10
2019,04,01,16,52,17.10
2019,04,01,16,53,17.10
2019,04,01,16,54,17.10
2019,04,01,16,55,17.00
2019,04,01,16,56,17.00
2019,04,01,16,57,17.00
2019,04,01,16,58,17.00
2019,04,01,16,59,17.00
2019,04,01,17,00,17.10
2019,04,01,17,01,17.10
2019,04,01,17,02,17.10
2019,04,01,17,03,17.10
2019,04,01,17,04,17.10
2019,04,01,17,05,17.10
2019,04,01,17,06,17.10
2019,04,01,17,07,17.10
2019,04,01,17,08,17.10
2019,04,01,17,09,17.10
2019,04,01,17,10,17.10
2019,04,01,17,11,17.00
2019,04,01,17,12,17.00
2019,04,01,17,13,17.00
2019,04,01,17,14,17.10
2019,04,01,17,15,17.10
2019,04,01,17,16,17.10
2019,04,01,17,17,17.10
2019,04,01,17,18,17.10
2019,04,01,17,19,17.10
2019,04,01,17,20,17.10
2019,04,01,17,21,17.10
2019,04,01,17,22,17.20
2019,04,01,17,23,17.20
2019,04,01,17,24,17.30
2019,04,01,17,25,17.30
2019,04,01,17,26,17.40
2019,04,01,17,27,17.40
2019,04,01,17,28,17.50
2019,04,01,17,29,17.60
2019,04,01,17,30,17.60
2019,04,01,17,31,17.70
2019,04,01,17,32,17.70
2019,04,01,17,33,17.70
2019,04,01,17,34,17.70
2019,04,01,17,35,17.70
2019,04,01,17,36,17.70
2019,04,01,17,37,17.60
2019,04,01,17,38,17.60
2019,04,01,17,39,17.60
2019,04,01,17,40,17.50
2019,04,01,17,41,17.50
2019,04,01,17,42,17.50